[[{"header":{"parameterUnit":"m.s-1","parameterCategory":1,"la1":30.2991,"la2":30.254,"lo1":-89.0895,"lo2":-89.0444,"dy":0.0017,"dx":0.0017,"nx":28,"ny":28,"refTime":"2025-03-18T21:00:00:Z","depth":0,"parameterNumber":2,"parameterNumberName":"U-component_of_WINDS"},"data":[0,0,0,0,0,0,0,0,0,0,0,0,0,0,0,0,0,0,0,0,0,0,0,0,0,0,0,0,0,0,0,0,0,0,0,0,0,0,0,0,0,0,0,0,0,0,0,0,0,0,0,0,0,0,0,0,0,0,5.1279,5.128,0,5.1355,5.1356,5.1357,5.1329,5.1327,5.1326,5.1324,5.1402,5.1405,5.1409,0,0,0,0,0,0,0,0,0,0,0,0,0,5.1111,5.1115,5.1279,5.128,5.1281,5.1355,5.1356,5.1357,5.1329,5.1327,5.1325,5.1323,5.1401,5.1405,5.1409,0,0,0,0,0,0,0,0,0,0,0,0,0,5.1185,5.1116,5.1279,5.1276,5.1276,5.1355,5.1356,5.1357,5.133,5.1327,5.1325,5.1322,5.1399,5.1405,5.141,5.1495,0,0,5.1427,5.1429,0,0,0,0,0,0,0,0,5.1181,5.1192,5.1275,5.1276,5.1277,5.133,5.1325,5.1403,5.1331,5.131,5.1324,5.1321,5.138,5.1387,5.1407,5.1499,5.1502,5.1427,5.1431,5.1433,5.1434,0,0,0,0,0,0,0,5.1176,5.1188,5.1309,5.1277,5.1278,5.1272,5.1279,5.134,5.1358,5.1311,5.1309,5.1319,5.138,5.1402,5.1408,5.1503,5.1427,5.1432,5.1435,5.1437,5.1672,5.1675,0,0,0,0,0,0,5.1171,5.1184,5.1306,5.1311,5.1222,5.1277,5.1285,5.1316,5.1357,5.1361,5.1321,5.1317,5.1393,5.1402,5.1411,5.1515,5.1433,5.1438,5.1441,5.167,5.1673,5.1676,0,0,0,0,0,0,5.1167,5.1182,5.1303,5.1247,5.1262,5.1282,5.1317,5.1318,5.134,5.1365,5.1368,5.134,5.1392,5.1403,5.1475,5.1518,5.144,5.1445,5.1666,5.1671,5.1675,5.1724,0,0,0,0,0,0,5.1162,5.1181,5.1213,5.1248,5.1265,5.1366,5.1319,5.1322,5.135,5.1345,5.1383,5.1387,5.1391,5.1467,5.1481,5.1524,5.145,5.1662,5.1668,5.1673,5.1719,5.1729,5.1739,0,0,0,0,0,5.1156,5.1223,5.1214,5.1229,5.1306,5.1368,5.1378,5.1381,5.1353,5.1386,5.1402,5.1386,5.1511,5.1475,5.149,5.1535,5.166,5.1666,5.1673,5.1714,5.1727,5.1739,0,0,0,0,0,0,5.119,5.1227,5.1218,5.1298,5.133,5.1363,5.1405,5.1395,5.1435,5.143,5.1432,5.1441,5.1515,5.1532,5.1491,5.1622,5.1581,5.1591,5.1607,5.162,5.163,5.1624,5.1454,0,0,0,0,0,5.1207,5.1255,5.1284,5.1352,5.1369,5.1384,5.1411,5.1411,5.1445,5.1458,5.148,5.1513,5.1561,5.1591,5.1636,5.1721,5.173,5.176,5.177,5.1778,5.1787,5.1836,5.185,5.1698,5.1698,5.1698,0,0,5.1242,5.1268,5.1298,5.136,5.1384,5.1435,5.1396,5.1449,5.1487,5.1466,5.1536,5.1554,5.1591,5.1671,5.1707,5.1688,5.1831,5.1787,5.1793,5.1797,5.1844,5.1859,5.1872,5.1703,5.1702,5.1701,0,0,5.1332,5.1356,5.1416,5.1443,5.1482,5.1492,5.1507,5.1542,5.1553,5.1623,5.161,5.1655,5.1735,5.1763,5.1788,5.1893,5.1879,5.1907,5.196,5.2007,5.2019,5.203,5.2069,5.2082,5.1915,5.1916,5.1916,0,5.1371,5.1445,5.1448,5.1504,5.1532,5.1517,5.1579,5.1604,5.1656,5.1676,5.1654,5.1757,5.1781,5.1868,5.1894,5.1914,5.1932,5.1902,5.2017,5.2028,5.2038,5.2075,5.2089,5.1919,5.1918,5.1918,5.1918,0,5.1492,5.1544,5.1588,5.1639,5.1672,5.1731,5.1743,5.1777,5.1775,5.1788,5.1861,5.189,5.1941,5.1962,5.196,5.205,5.2037,5.2016,5.1976,5.2056,5.2091,5.2105,5.1923,5.1922,5.1921,5.192,0,0,5.1603,5.1657,5.1673,5.1698,5.1741,5.1782,5.1841,5.1892,5.1921,5.1958,5.2008,5.2079,5.206,5.2089,5.209,5.2132,5.2215,5.2106,5.2107,5.2126,5.2319,5.2335,5.2351,5.2207,5.221,5.2212,5.2316,0,5.1697,5.18,5.1806,5.19,5.1949,5.1937,5.1989,5.2022,5.2037,5.2081,5.2097,5.2148,5.2119,5.2137,5.2177,5.2196,5.2254,5.2189,5.2255,5.2257,5.2246,5.2369,5.2385,5.2482,5.2329,5.2332,5.2333,0,5.182,5.1862,5.1961,5.2,5.2021,5.2067,5.2116,5.2159,5.2197,5.2205,5.2238,5.2234,5.2296,5.2254,5.234,5.2296,5.2324,5.2337,5.2341,5.2348,5.23,5.2379,5.2512,5.2527,5.2354,5.2353,5.2351,0,5.1893,5.1974,5.2045,5.2066,5.2113,5.2146,5.2167,5.2203,5.2234,5.2277,5.2297,5.2347,5.2374,5.2413,5.2423,5.2391,5.251,5.2468,5.2519,5.2519,5.2544,5.2542,5.2684,5.2561,5.2561,5.2561,5.256,0,5.1997,5.2059,5.2079,5.2122,5.2192,5.2198,5.2267,5.2286,5.2319,5.2366,5.2359,5.2404,5.2415,5.2462,5.2471,5.2542,5.2554,5.2563,5.2565,5.2564,5.2563,5.2582,5.2576,5.2565,5.2564,5.2563,5.2562,0,5.209,5.2106,5.2182,5.2221,5.2233,5.2282,5.2316,5.2359,5.2373,5.2434,5.2449,5.2472,5.2528,5.2543,5.2609,5.2615,5.27,5.2694,5.2687,5.2687,5.2738,5.2733,5.2897,5.292,5.2781,5.2782,5.2784,0,5.2156,5.2203,5.2248,5.228,5.2303,5.2354,5.2387,5.2396,5.243,5.2479,5.2516,5.2572,5.2616,5.2707,5.273,5.2782,5.2778,5.2833,5.2786,5.2785,5.2781,5.2778,5.2784,5.2841,5.2843,5.2844,5.2845,0,5.2272,5.2278,5.2325,5.2376,5.2415,5.2455,5.2494,5.252,5.2535,5.2575,5.2632,5.2667,5.2737,5.2792,5.2845,5.2868,5.286,5.286,5.2874,5.2874,5.2868,5.2874,5.2712,5.2855,5.2854,5.2854,5.2853,5.2853,5.2354,5.2397,5.2436,5.2489,5.2519,5.2556,5.2599,5.262,5.2668,5.2726,5.2728,5.2792,5.2831,5.2901,5.2927,5.2978,5.2961,5.2982,5.2988,5.2993,5.2998,5.286,5.2987,5.2987,5.2987,5.2987,5.2986,0,5.2471,5.2496,5.2545,5.26,5.2643,5.2632,5.2675,5.2711,5.2767,5.2805,5.285,5.2917,5.2972,5.3001,5.3056,5.3091,5.3089,5.3105,5.3103,5.3108,5.3009,5.2991,5.3106,5.3106,5.3106,5.3106,5.3106,5.3106,5.2536,5.2608,5.262,5.2708,5.2732,5.2795,5.282,5.2855,5.2885,5.2961,5.3007,5.3026,5.3061,5.3118,5.3169,5.3176,5.3197,5.3216,5.3221,5.3127,5.3115,5.3103,5.3087,5.322,5.322,5.3316,5.3317,5.3318]},{"header":{"parameterUnit":"m.s-1","parameterCategory":1,"la1":30.2991,"la2":30.254,"lo1":-89.0895,"lo2":-89.0444,"dy":0.0017,"dx":0.0017,"nx":28,"ny":28,"refTime":"2025-03-18T21:00:00:Z","depth":0,"parameterNumber":3,"parameterNumberName":"V-component_of_WINDS"},"data":[0,0,0,0,0,0,0,0,0,0,0,0,0,0,0,0,0,0,0,0,0,0,0,0,0,0,0,0,0,0,0,0,0,0,0,0,0,0,0,0,0,0,0,0,0,0,0,0,0,0,0,0,0,0,0,0,0,0,-5.9711,-5.9713,0,-5.9818,-5.9819,-5.982,-5.9822,-5.9821,-5.9819,-5.9818,-5.9923,-5.9927,-5.9931,0,0,0,0,0,0,0,0,0,0,0,0,0,-5.9507,-5.9511,-5.9711,-5.9713,-5.9714,-5.9818,-5.9819,-5.9821,-5.9822,-5.9821,-5.9819,-5.9818,-5.9922,-5.9927,-5.9931,0,0,0,0,0,0,0,0,0,0,0,0,0,-5.9603,-5.9512,-5.9711,-5.9727,-5.973,-5.9817,-5.9819,-5.9821,-5.9823,-5.9821,-5.9819,-5.9817,-5.992,-5.9926,-5.9932,-6.0009,0,0,-5.9951,-5.9953,0,0,0,0,0,0,0,0,-5.9597,-5.961,-5.9724,-5.9726,-5.9729,-5.9805,-5.9786,-5.9884,-5.9823,-5.9787,-5.9818,-5.9816,-5.9885,-5.9894,-5.9918,-6.0014,-6.0019,-5.9951,-5.9955,-5.9957,-5.9959,0,0,0,0,0,0,0,-5.9591,-5.9606,-5.9753,-5.9725,-5.9729,-5.9729,-5.974,-5.9804,-5.9846,-5.979,-5.9791,-5.9803,-5.9886,-5.9912,-5.9921,-6.002,-5.9951,-5.9956,-5.996,-5.9962,-6.0188,-6.019,0,0,0,0,0,0,-5.9581,-5.96,-5.975,-5.9757,-5.9657,-5.9734,-5.9747,-5.9782,-5.9845,-5.9853,-5.9805,-5.9803,-5.9903,-5.9914,-5.9924,-6.0021,-5.9957,-5.9963,-5.9967,-6.0185,-6.0188,-6.0191,0,0,0,0,0,0,-5.9577,-5.9595,-5.9746,-5.9679,-5.9698,-5.974,-5.978,-5.9786,-5.9812,-5.9857,-5.9864,-5.9824,-5.9902,-5.9916,-5.9989,-6.0024,-5.9966,-5.9971,-6.0183,-6.0186,-6.0189,-6.0212,0,0,0,0,0,0,-5.9571,-5.9593,-5.9623,-5.9679,-5.9702,-5.9809,-5.9782,-5.9789,-5.9823,-5.9821,-5.9876,-5.9884,-5.9901,-5.998,-5.9995,-6.0031,-5.9976,-6.018,-6.0184,-6.0188,-6.0209,-6.0216,-6.0223,0,0,0,0,0,-5.9564,-5.9624,-5.9625,-5.9643,-5.974,-5.9811,-5.9824,-5.9844,-5.9825,-5.9856,-5.9885,-5.9882,-6.0018,-5.9988,-6.0004,-6.0043,-6.0177,-6.0183,-6.0188,-6.0206,-6.0215,-6.0223,0,0,0,0,0,0,-5.9568,-5.9631,-5.9633,-5.9713,-5.9757,-5.9811,-5.985,-5.9853,-5.9902,-5.9898,-5.992,-5.9933,-6.0006,-6.0032,-5.9997,-6.0122,-6.0095,-6.0104,-6.0103,-6.0112,-6.0119,-6.0111,-5.9981,0,0,0,0,0,-5.9579,-5.9633,-5.9684,-5.975,-5.9772,-5.9808,-5.9839,-5.9852,-5.9898,-5.9916,-5.995,-5.9994,-6.0047,-6.0081,-6.0132,-6.0213,-6.0225,-6.0248,-6.0255,-6.026,-6.0268,-6.0314,-6.0325,-6.0208,-6.0208,-6.0208,0,0,-5.9601,-5.9642,-5.9674,-5.9752,-5.9788,-5.9842,-5.9823,-5.9881,-5.9922,-5.9924,-5.9996,-6.0023,-6.0073,-6.0152,-6.0187,-6.0175,-6.0303,-6.0267,-6.0271,-6.0276,-6.0321,-6.0332,-6.0342,-6.0212,-6.0211,-6.021,0,0,-5.9669,-5.9705,-5.9765,-5.9802,-5.9857,-5.9881,-5.9895,-5.995,-5.9969,-6.0042,-6.0045,-6.0094,-6.0184,-6.022,-6.025,-6.0336,-6.0335,-6.0352,-6.0388,-6.0434,-6.0443,-6.0451,-6.0483,-6.0494,-6.0359,-6.0359,-6.0359,0,-5.9689,-5.9773,-5.9795,-5.9855,-5.9889,-5.9896,-5.9957,-5.9991,-6.0059,-6.0083,-6.0069,-6.0184,-6.0218,-6.0306,-6.0327,-6.0351,-6.0369,-6.0345,-6.044,-6.0449,-6.0457,-6.0487,-6.0499,-6.0361,-6.0361,-6.036,-6.036,0,-5.9795,-5.9853,-5.9895,-5.9963,-6.0002,-6.0062,-6.0094,-6.0131,-6.014,-6.0166,-6.0241,-6.0283,-6.0343,-6.0365,-6.0374,-6.0455,-6.0446,-6.0435,-6.0409,-6.0469,-6.0498,-6.051,-6.0363,-6.0363,-6.0362,-6.0362,0,0,-5.9867,-5.995,-5.9965,-5.9997,-6.0059,-6.0104,-6.0165,-6.0226,-6.0258,-6.0305,-6.0357,-6.0435,-6.0427,-6.0461,-6.0474,-6.0514,-6.0581,-6.0499,-6.0501,-6.0514,-6.0674,-6.0682,-6.0695,-6.0581,-6.0583,-6.0585,-6.0671,0,-5.9943,-6.0052,-6.0076,-6.017,-6.0224,-6.0233,-6.0286,-6.033,-6.0356,-6.0405,-6.0433,-6.0488,-6.0473,-6.0494,-6.0534,-6.0564,-6.0614,-6.0558,-6.0629,-6.0632,-6.0617,-6.071,-6.0718,-6.0796,-6.0682,-6.0684,-6.0685,0,-6.0045,-6.0098,-6.0198,-6.0256,-6.0279,-6.0327,-6.0386,-6.0433,-6.0484,-6.05,-6.054,-6.055,-6.0613,-6.0584,-6.0672,-6.0635,-6.0665,-6.0685,-6.0688,-6.0696,-6.0662,-6.0721,-6.0822,-6.0834,-6.0703,-6.0702,-6.07,0,-6.0089,-6.0185,-6.0258,-6.0285,-6.0354,-6.0387,-6.0417,-6.0466,-6.0502,-6.0554,-6.0577,-6.0635,-6.0666,-6.0711,-6.0736,-6.0712,-6.0823,-6.0795,-6.0838,-6.0838,-6.086,-6.0859,-6.0969,-6.0879,-6.0879,-6.0879,-6.0879,0,-6.0172,-6.0233,-6.0279,-6.0324,-6.0393,-6.042,-6.0487,-6.0517,-6.0561,-6.0612,-6.0622,-6.0669,-6.0699,-6.0751,-6.0771,-6.0842,-6.0856,-6.087,-6.0875,-6.087,-6.0868,-6.089,-6.0885,-6.0882,-6.0882,-6.0881,-6.088,0,-6.0232,-6.0266,-6.0346,-6.0406,-6.0422,-6.0471,-6.0522,-6.0566,-6.0592,-6.0657,-6.0673,-6.0715,-6.0777,-6.0807,-6.0882,-6.0896,-6.0976,-6.0977,-6.096,-6.0962,-6.1003,-6.0999,-6.1131,-6.115,-6.1048,-6.1049,-6.105,0,-6.0283,-6.033,-6.0396,-6.0432,-6.0464,-6.052,-6.0558,-6.0587,-6.0626,-6.0689,-6.0725,-6.0788,-6.0839,-6.0937,-6.0974,-6.1032,-6.1035,-6.1077,-6.1043,-6.1038,-6.1037,-6.1034,-6.1039,-6.1083,-6.1084,-6.1085,-6.1085,0,-6.0369,-6.0384,-6.0439,-6.0501,-6.0546,-6.0595,-6.0644,-6.0672,-6.0708,-6.0752,-6.0816,-6.0856,-6.0935,-6.0998,-6.1059,-6.1089,-6.1094,-6.1096,-6.1109,-6.1104,-6.1093,-6.1101,-6.0977,-6.1093,-6.1092,-6.1091,-6.1091,-6.1091,-6.0427,-6.047,-6.0525,-6.0586,-6.0626,-6.0672,-6.0717,-6.0751,-6.0805,-6.0873,-6.0887,-6.0955,-6.1006,-6.109,-6.1123,-6.1176,-6.1167,-6.1185,-6.119,-6.1195,-6.1198,-6.1085,-6.1187,-6.1187,-6.1187,-6.1187,-6.1187,0,-6.0515,-6.0551,-6.0607,-6.0676,-6.0725,-6.0727,-6.0781,-6.0821,-6.0882,-6.093,-6.0982,-6.1057,-6.1118,-6.116,-6.1222,-6.1257,-6.1261,-6.1273,-6.1271,-6.1278,-6.1202,-6.1185,-6.1269,-6.1269,-6.1269,-6.1269,-6.1269,-6.1269,-6.0566,-6.0641,-6.0663,-6.0758,-6.0793,-6.0862,-6.0893,-6.0936,-6.0975,-6.1058,-6.111,-6.1138,-6.1184,-6.1251,-6.1307,-6.1318,-6.1341,-6.1353,-6.1363,-6.1292,-6.1283,-6.1275,-6.1259,-6.1357,-6.1357,-6.1435,-6.1436,-6.1436]}]]